Hourly Data Report for September 08, 2013

All times are specified in Local Standard Time (LST). Add 1 hour to adjust for Daylight Saving Time where and when it is observed.

PETAWAWA AWOS 2
ONTARIO

45°57'00.000" N
77°19'00.000" W
130.10 m
6106396
71625
YWA

Download Data

Hourly Data (September 2013)
Hourly Data Report for September 8, 2013
Temp Definition
°C
Dew Point Temp Definition
°C
Rel Hum Definition
%
Wind Dir Definition
10's deg

Wind Spd Definition
km/h
Visibility Definition
km
Stn Press Definition
kPa
Hmdx Definition


Wind Chill Definition


Weather Definition


TIME
00:00 14.3 10.0 75 34 13 15.0 99.82      
01:00 13.4 10.1 80 31 15 15.0 99.88      
02:00 11.4 9.8 90 28 7 15.0 99.88      
03:00 10.5 9.2 92 30 6 15.0 99.92      
04:00 10.1 8.8 92 31 9 15.0 99.98      
05:00 9.5 7.7 89 32 9 15.0 100.06      
06:00 8.9 7.6 92   0 15.0 100.15      
07:00 9.5 6.5 82 33 17 15.0 100.26      
08:00 10.1 5.5 73 33 22 15.0 100.32      
09:00 11.4 5.6 67 31 15 15.0 100.34      
10:00 12.6 4.9 59 33 17 15.0 100.35      
11:00 13.9 4.6 53 36 19 15.0 100.38      
12:00 15.2 5.4 52 31 15 15.0 100.38      
13:00 15.6 4.9 49 30 13 15.0 100.36      
14:00 16.1 5.0 48 31 20 15.0 100.30      
15:00 16.3 3.5 42 32 13 15.0 100.29      
16:00 16.3 3.8 43 29 19 15.0 100.32      
17:00 16.1 3.8 44 30 11 15.0 100.33      
18:00 15.3 4.5 48 30 6 15.0 100.32      
19:00 9.9 7.8 87 21 4 15.0 100.32      
20:00 10.4 7.5 82 27 4 15.0 100.35      
21:00 8.4 6.7 89   0 15.0 100.37      
22:00 6.1 5.8 98 20 4 15.0 100.38      
23:00 4.8 4.7 99 24 4 15.0 100.38      

Notes on Data Quality.

Legend

  • E = Estimated
  • M = Missing
  • NA = Not Available
Date modified: